Messwerte Maputo

Temperatur

Temperatur
°C
1524045600 12.00 12.00 29
1524049200 13.00 13.00 31
1524052800 14.00 14.00 31
1524056400 15.00 15.00 32
1524060000 16.00 16.00 30
1524063600 17.00 17.00 27
1524067200 18.00 18.00
1524070800 19.00 19.00 25
1524074400 20.00 20.00 24
1524078000 21.00 21.00 24
1524081600 22.00 22.00 23
1524085200 23.00 23.00 23
1524088800 0.00 0.00
1524092400 1.00 1.00 20
1524096000 2.00 2.00 20
1524099600 3.00 3.00
1524103200 4.00 4.00 19
1524106800 5.00 5.00 20
1524110400 6.00 6.00
1524114000 7.00 7.00 23
1524117600 8.00 8.00 26
1524121200 9.00 9.00 28
1524124800 10.00 10.00
1524128400 11.00 11.00 32

Aktuellste Messwerte

Wettercharakter
Wetter: recht sonnig
Temperatur
32 °C
Feuchtigkeit
40 %
Wind
10 km/hWindrichtung: Nordwest
Luftdruck
1022 hPa
Messzeit: 19. April 2018, 11.00Datenquelle: METAR

Weitere Messstationen in der Nähe

Messstation Temperatur Entfernung
Kruger Mpumalanga Intl 26 °C 158 km
Inhambane - 363 km
Pretoria 24 °C 436 km
Lanseria 23 °C 464 km
Vereeniging 23 °C 466 km

Wind

Windrichtung Böen Mittelwind
° km/h km/h
1524045600 12.00 11.00 - 12.00 360° 20
1524049200 13.00 12.00 - 13.00 360° 15
1524052800 14.00 13.00 - 14.00 20° 15
1524056400 15.00 14.00 - 15.00 40° 20
1524060000 16.00 15.00 - 16.00 50° 20
1524063600 17.00 16.00 - 17.00 70° 20
1524067200 18.00 17.00 - 18.00
1524070800 19.00 18.00 - 19.00 50° 15
1524074400 20.00 19.00 - 20.00 70° 15
1524078000 21.00 20.00 - 21.00 40° 20
1524081600 22.00 21.00 - 22.00 40° 15
1524085200 23.00 22.00 - 23.00 20° 10
1524088800 0.00 23.00 - 0.00
1524092400 1.00 0.00 - 1.00 20° 5
1524096000 2.00 1.00 - 2.00 20° 5
1524099600 3.00 2.00 - 3.00
1524103200 4.00 3.00 - 4.00 360° 10
1524106800 5.00 4.00 - 5.00 360° 15
1524110400 6.00 5.00 - 6.00
1524114000 7.00 6.00 - 7.00 340° 20
1524117600 8.00 7.00 - 8.00 360° 20
1524121200 9.00 8.00 - 9.00 360° 20
1524124800 10.00 9.00 - 10.00
1524128400 11.00 10.00 - 11.00 320° 10

Ihre Wetterstation

Fehlt Ihre Wetterstation auf unserem Portal?

Schreiben Sie an network@meteonews.ch

Klima

Wann ist es am wärmsten? Wann regnet es am wenigsten? Unsere Klimadaten geben Auskunft.